Location: Unspecified
(0.0000°N, 0.0000°E)
Time: 14:41:14
(UTC+00:00)

FALCON 9 R/B - Pass Details

Date: 08 November 2020
Orbit: 485 x 62261 km, 25.4° (Epoch: 27 November)

Event Time Altitude Azimuth Distance (km) Brightness Sun altitude
Rises 00:56:01 0° 69° (ENE) 67,314 ? -65.6°
Reaches altitude 10° 01:49:20 10° 70° (ENE) 67,067 ? -54.9°
Maximum altitude 08:28:12 77° 349° (NNW) 44,748 ? 39.0°
Drops below altitude 10° 12:19:46 10° 132° (SE) 5,531 ? 71.0°
Sets 12:21:56 0° 128° (SE) 5,799 ? 70.8°
